RYR6RR EGSS-LEAM

Flight info

Callsign RYR6RR
Flight time N/A
Altitude 35000
Route NUGBO M183 SILVA Q41 COWLY UT71 VAPID UN859 LGL/N0444F370 UN859 SOPIL DCT BALAN DCT LMG DCT PIMQO DCT AGN DCT ANETO N860 DOSEK
Aircraft B738/M-SDE3FGILRWY/SB1

Departure

Time N/A
Airport London Stansted Airport (EGSS)

Arrival

Time 2026-05-07 13:49
Airport Almería Airport (LEAM)
Time Latitude Longitude Altitude Speed Heading
2026-05-07 12:32 43.59057 0.79344 34991 ft 407 kts 193°
2026-05-07 12:32 43.56273 0.78603 34989 ft 408 kts 193°
2026-05-07 12:33 43.47880 0.76374 34991 ft 411 kts 193°
2026-05-07 12:33 43.42247 0.74881 34978 ft 413 kts 193°
2026-05-07 12:34 43.36593 0.73386 34981 ft 414 kts 193°
2026-05-07 12:34 43.30921 0.71889 34982 ft 415 kts 193°
2026-05-07 12:35 43.25279 0.70402 34977 ft 416 kts 193°
2026-05-07 12:35 43.19596 0.68908 34974 ft 415 kts 193°
2026-05-07 12:36 43.13930 0.67421 34969 ft 414 kts 193°
2026-05-07 12:36 43.08275 0.65940 34970 ft 413 kts 193°
2026-05-07 12:37 43.02640 0.64466 34971 ft 412 kts 193°
2026-05-07 12:37 42.97030 0.63002 34967 ft 410 kts 193°
2026-05-07 12:38 42.91429 0.61542 35028 ft 412 kts 193°
2026-05-07 12:38 42.88605 0.60806 35175 ft 414 kts 193°
2026-05-07 12:38 42.85776 0.60071 35412 ft 413 kts 193°
2026-05-07 12:39 42.82960 0.59340 35699 ft 412 kts 193°
2026-05-07 12:39 42.80149 0.58611 35971 ft 411 kts 193°
2026-05-07 12:39 42.74478 0.57140 35978 ft 416 kts 193°
2026-05-07 12:40 42.68810 0.55675 35952 ft 412 kts 193°
2026-05-07 12:40 42.63191 0.54234 35973 ft 410 kts 193°
2026-05-07 12:41 42.57593 0.52803 35963 ft 408 kts 193°
2026-05-07 12:41 42.52018 0.51378 35962 ft 407 kts 193°
2026-05-07 12:42 42.46451 0.49958 35951 ft 407 kts 193°
2026-05-07 12:42 42.40889 0.48541 35956 ft 407 kts 193°
2026-05-07 12:43 42.35371 0.47137 35941 ft 407 kts 193°
2026-05-07 12:43 42.29773 0.45707 35956 ft 407 kts 193°
2026-05-07 12:44 42.24235 0.44292 35947 ft 408 kts 193°
2026-05-07 12:44 42.18649 0.42868 35934 ft 409 kts 193°
2026-05-07 12:45 42.13058 0.41445 35941 ft 409 kts 193°
2026-05-07 12:45 42.07464 0.40024 35934 ft 409 kts 193°
2026-05-07 12:46 42.01881 0.38609 35948 ft 408 kts 193°
2026-05-07 12:46 41.96308 0.37199 35958 ft 407 kts 193°
2026-05-07 12:47 41.90751 0.35802 35950 ft 406 kts 193°
2026-05-07 12:47 41.85211 0.34411 35963 ft 404 kts 193°
2026-05-07 12:48 41.79685 0.33024 35957 ft 403 kts 193°
2026-05-07 12:48 41.74180 0.31647 35960 ft 401 kts 193°
2026-05-07 12:49 41.68700 0.30287 35958 ft 400 kts 193°
2026-05-07 12:49 41.63236 0.28935 35954 ft 399 kts 193°
2026-05-07 12:50 41.57786 0.27587 35954 ft 398 kts 193°
2026-05-07 12:50 41.52348 0.26245 35944 ft 397 kts 193°
2026-05-07 12:51 41.46964 0.24917 35948 ft 396 kts 193°
2026-05-07 12:51 41.41542 0.23582 35948 ft 396 kts 193°
2026-05-07 12:52 41.36114 0.22248 35940 ft 397 kts 193°
2026-05-07 12:52 41.30690 0.20892 35944 ft 396 kts 193°
2026-05-07 12:53 41.25272 0.19519 35947 ft 396 kts 193°
2026-05-07 12:53 41.19848 0.18184 35951 ft 396 kts 193°
2026-05-07 12:54 41.14426 0.16852 35951 ft 396 kts 193°
2026-05-07 12:54 41.09108 0.15064 35946 ft 393 kts 199°
2026-05-07 12:55 41.03886 0.12901 35949 ft 393 kts 199°
2026-05-07 12:55 40.98660 0.10771 35963 ft 393 kts 199°
2026-05-07 12:56 40.93430 0.08680 35952 ft 393 kts 199°
2026-05-07 12:56 40.88202 0.06600 35948 ft 392 kts 199°
2026-05-07 12:57 40.82994 0.04515 35958 ft 391 kts 199°
2026-05-07 12:57 40.77789 0.02417 35953 ft 391 kts 199°
2026-05-07 12:58 40.72606 0.00333 35961 ft 391 kts 199°
2026-05-07 12:58 40.67402 -0.01756 35969 ft 391 kts 199°
2026-05-07 12:59 40.62190 -0.03844 35969 ft 392 kts 199°
2026-05-07 12:59 40.56968 -0.05932 35958 ft 392 kts 199°
2026-05-07 13:00 40.51741 -0.08007 35965 ft 392 kts 199°
2026-05-07 13:00 40.46508 -0.10072 35944 ft 393 kts 199°
2026-05-07 13:01 40.41271 -0.12136 35945 ft 393 kts 199°
2026-05-07 13:01 40.36046 -0.14194 35934 ft 392 kts 199°
2026-05-07 13:02 40.30825 -0.16247 35934 ft 391 kts 199°
2026-05-07 13:02 40.25609 -0.18295 35939 ft 391 kts 199°
2026-05-07 13:03 40.20407 -0.20348 35944 ft 390 kts 199°
2026-05-07 13:03 40.15220 -0.22400 35950 ft 389 kts 199°
2026-05-07 13:04 40.10038 -0.24446 35957 ft 389 kts 199°
2026-05-07 13:04 40.04866 -0.26485 35974 ft 388 kts 199°
2026-05-07 13:05 39.99698 -0.28516 35962 ft 387 kts 199°
2026-05-07 13:05 39.94539 -0.30508 35968 ft 387 kts 199°
2026-05-07 13:06 39.89378 -0.32491 35954 ft 386 kts 199°
2026-05-07 13:06 39.84254 -0.34479 35971 ft 384 kts 199°
2026-05-07 13:07 39.79127 -0.36478 35959 ft 385 kts 199°
2026-05-07 13:07 39.73984 -0.38478 35971 ft 386 kts 199°
2026-05-07 13:08 39.68820 -0.40483 35973 ft 388 kts 199°
2026-05-07 13:08 39.63620 -0.42497 35966 ft 391 kts 199°
2026-05-07 13:09 39.58397 -0.44518 35967 ft 392 kts 199°
2026-05-07 13:09 39.53167 -0.46538 35966 ft 392 kts 199°
2026-05-07 13:10 39.47981 -0.48719 35961 ft 391 kts 205°
2026-05-07 13:10 39.43198 -0.52016 35962 ft 389 kts 210°
2026-05-07 13:11 39.38442 -0.55360 35961 ft 389 kts 209°
2026-05-07 13:11 39.33686 -0.58675 35960 ft 388 kts 209°
2026-05-07 13:12 39.28937 -0.61971 35976 ft 387 kts 209°
2026-05-07 13:12 39.24188 -0.65261 35968 ft 387 kts 209°
2026-05-07 13:13 39.19479 -0.68519 35973 ft 387 kts 209°
2026-05-07 13:13 39.14739 -0.71793 35971 ft 387 kts 209°
2026-05-07 13:14 39.09995 -0.75066 35949 ft 386 kts 209°
2026-05-07 13:14 39.05262 -0.78325 35967 ft 387 kts 210°
2026-05-07 13:15 39.00512 -0.81594 35972 ft 388 kts 209°
2026-05-07 13:15 38.96518 -0.84340 35964 ft 389 kts 209°
2026-05-07 13:16 38.91758 -0.87609 35970 ft 391 kts 210°
2026-05-07 13:16 38.86913 -0.90931 35942 ft 393 kts 210°
2026-05-07 13:17 38.82082 -0.94239 35956 ft 394 kts 210°
2026-05-07 13:17 38.77232 -0.97556 35954 ft 396 kts 210°
2026-05-07 13:18 38.72368 -1.00874 35961 ft 396 kts 210°
2026-05-07 13:18 38.67601 -1.04118 35626 ft 380 kts 210°
2026-05-07 13:19 38.65293 -1.05687 35288 ft 374 kts 210°
2026-05-07 13:19 38.63009 -1.07240 34941 ft 369 kts 210°
2026-05-07 13:19 38.60747 -1.08777 34553 ft 367 kts 210°
2026-05-07 13:19 38.58504 -1.10301 34195 ft 364 kts 210°
2026-05-07 13:20 38.56278 -1.11813 33809 ft 361 kts 210°
2026-05-07 13:20 38.54075 -1.13307 33392 ft 358 kts 210°
2026-05-07 13:20 38.51911 -1.14775 33028 ft 355 kts 210°
2026-05-07 13:20 38.49708 -1.16267 32623 ft 352 kts 210°
2026-05-07 13:21 38.47584 -1.17705 32261 ft 349 kts 210°
2026-05-07 13:21 38.45444 -1.19153 31889 ft 347 kts 209°
2026-05-07 13:21 38.43323 -1.20587 31538 ft 344 kts 209°
2026-05-07 13:21 38.41217 -1.22010 31188 ft 341 kts 209°
2026-05-07 13:22 38.39127 -1.23421 30842 ft 339 kts 209°
2026-05-07 13:22 38.37054 -1.24821 30496 ft 336 kts 208°
2026-05-07 13:22 38.34991 -1.26212 30158 ft 334 kts 208°
2026-05-07 13:22 38.32942 -1.27593 29785 ft 332 kts 208°
2026-05-07 13:23 38.30907 -1.28963 29392 ft 330 kts 208°
2026-05-07 13:23 38.28892 -1.30319 29049 ft 325 kts 208°
2026-05-07 13:23 38.26900 -1.31658 28682 ft 322 kts 208°
2026-05-07 13:23 38.24930 -1.32982 28327 ft 319 kts 208°
2026-05-07 13:24 38.22973 -1.34297 27977 ft 316 kts 208°
2026-05-07 13:24 38.21034 -1.35599 27631 ft 314 kts 208°
2026-05-07 13:24 38.19112 -1.36888 27285 ft 311 kts 208°
2026-05-07 13:24 38.17205 -1.38166 26937 ft 309 kts 209°
2026-05-07 13:25 38.15317 -1.39432 26608 ft 306 kts 209°
2026-05-07 13:25 38.13438 -1.40690 26283 ft 305 kts 209°
2026-05-07 13:25 38.11566 -1.41944 25974 ft 304 kts 209°
2026-05-07 13:25 38.09693 -1.43197 25638 ft 306 kts 209°
2026-05-07 13:26 38.07775 -1.44480 25320 ft 317 kts 209°
2026-05-07 13:26 38.05803 -1.45799 24970 ft 322 kts 209°
2026-05-07 13:26 38.03825 -1.47119 24611 ft 321 kts 209°
2026-05-07 13:26 38.01852 -1.48436 24259 ft 319 kts 209°
2026-05-07 13:27 37.99918 -1.49726 23919 ft 318 kts 209°
2026-05-07 13:27 37.97967 -1.51027 23571 ft 317 kts 208°
2026-05-07 13:27 37.96022 -1.52323 23175 ft 315 kts 208°
2026-05-07 13:27 37.94081 -1.53615 22798 ft 314 kts 209°
2026-05-07 13:28 37.92157 -1.54895 22438 ft 311 kts 209°
2026-05-07 13:28 37.90244 -1.56164 21986 ft 311 kts 209°
2026-05-07 13:28 37.88285 -1.57445 21385 ft 317 kts 208°
2026-05-07 13:28 37.86318 -1.58721 20947 ft 317 kts 208°
2026-05-07 13:29 37.84362 -1.59987 20605 ft 315 kts 208°
2026-05-07 13:29 37.82414 -1.61248 20258 ft 313 kts 208°
2026-05-07 13:29 37.80480 -1.62499 19932 ft 311 kts 208°
2026-05-07 13:29 37.78556 -1.63745 19598 ft 310 kts 208°
2026-05-07 13:30 37.76647 -1.64981 19273 ft 308 kts 208°
2026-05-07 13:30 37.74745 -1.66212 18960 ft 306 kts 208°
2026-05-07 13:30 37.72856 -1.67434 18640 ft 305 kts 208°
2026-05-07 13:30 37.70968 -1.68655 18323 ft 304 kts 208°
2026-05-07 13:31 37.69090 -1.69869 17969 ft 303 kts 209°
2026-05-07 13:31 37.67219 -1.71078 17611 ft 302 kts 209°
2026-05-07 13:31 37.65355 -1.72282 17289 ft 299 kts 209°
2026-05-07 13:31 37.63508 -1.73474 16974 ft 298 kts 208°
2026-05-07 13:32 37.61671 -1.74659 16652 ft 296 kts 208°
2026-05-07 13:32 37.59847 -1.75835 16340 ft 294 kts 208°
2026-05-07 13:32 37.58032 -1.77004 16031 ft 292 kts 208°
2026-05-07 13:32 37.56255 -1.78149 15733 ft 290 kts 208°
2026-05-07 13:33 37.54463 -1.79302 15427 ft 288 kts 208°
2026-05-07 13:33 37.52681 -1.80448 15132 ft 287 kts 208°
2026-05-07 13:33 37.50905 -1.81591 14819 ft 286 kts 208°
2026-05-07 13:33 37.49137 -1.82726 14523 ft 284 kts 208°
2026-05-07 13:34 37.47379 -1.83855 14229 ft 283 kts 208°
2026-05-07 13:34 37.43869 -1.86108 13609 ft 283 kts 208°
2026-05-07 13:34 37.42119 -1.87231 13276 ft 282 kts 208°
2026-05-07 13:35 37.40375 -1.88349 12961 ft 281 kts 208°
2026-05-07 13:35 37.38639 -1.89461 12652 ft 279 kts 208°
2026-05-07 13:35 37.36912 -1.90566 12343 ft 278 kts 208°
2026-05-07 13:35 37.35193 -1.91667 12045 ft 277 kts 207°
2026-05-07 13:36 37.33475 -1.92766 11736 ft 276 kts 207°
2026-05-07 13:36 37.31769 -1.93857 11443 ft 275 kts 207°
2026-05-07 13:36 37.30067 -1.94945 11153 ft 274 kts 207°
2026-05-07 13:36 37.28369 -1.96030 10851 ft 273 kts 207°
2026-05-07 13:37 37.26677 -1.97109 10561 ft 272 kts 207°
2026-05-07 13:37 37.24989 -1.98186 10259 ft 272 kts 207°
2026-05-07 13:37 37.23312 -1.99279 10026 ft 269 kts 207°
2026-05-07 13:37 37.21674 -2.00378 9795 ft 266 kts 208°
2026-05-07 13:38 37.20047 -2.01474 9501 ft 265 kts 209°
2026-05-07 13:38 37.18426 -2.02565 9225 ft 264 kts 209°
2026-05-07 13:38 37.16811 -2.03651 8941 ft 263 kts 209°
2026-05-07 13:38 37.15202 -2.04732 8656 ft 262 kts 208°
2026-05-07 13:39 37.13604 -2.05803 8393 ft 259 kts 208°
2026-05-07 13:39 37.12018 -2.06865 8122 ft 258 kts 208°
2026-05-07 13:39 37.10439 -2.07920 7863 ft 257 kts 208°
2026-05-07 13:39 37.08863 -2.08975 7585 ft 257 kts 208°
2026-05-07 13:40 37.07288 -2.10026 7310 ft 256 kts 208°
2026-05-07 13:40 37.05719 -2.11071 7046 ft 255 kts 208°
2026-05-07 13:40 37.04159 -2.12109 6786 ft 254 kts 208°
2026-05-07 13:40 37.02505 -2.12839 6499 ft 254 kts 184°
2026-05-07 13:41 37.00792 -2.12459 6247 ft 252 kts 154°
2026-05-07 13:41 36.99404 -2.11163 6033 ft 249 kts 132°
2026-05-07 13:41 36.98296 -2.09504 5798 ft 250 kts 131°
2026-05-07 13:41 36.97118 -2.07911 5571 ft 256 kts 136°
2026-05-07 13:42 36.95778 -2.06395 5312 ft 263 kts 141°
2026-05-07 13:42 36.94287 -2.05035 5043 ft 265 kts 147°
2026-05-07 13:42 36.92693 -2.03874 4759 ft 264 kts 154°
2026-05-07 13:42 36.90918 -2.03482 4478 ft 259 kts 193°
2026-05-07 13:43 36.89426 -2.04515 4480 ft 239 kts 231°
2026-05-07 13:43 36.88844 -2.06320 4500 ft 217 kts 263°
2026-05-07 13:43 36.88887 -2.08133 4307 ft 206 kts 290°
2026-05-07 13:43 36.89461 -2.09719 4119 ft 197 kts 290°
2026-05-07 13:44 36.89739 -2.11364 3914 ft 192 kts 274°
2026-05-07 13:44 36.89728 -2.13018 3673 ft 189 kts 264°
2026-05-07 13:44 36.89544 -2.14630 3432 ft 186 kts 259°
2026-05-07 13:44 36.89276 -2.16190 3192 ft 182 kts 256°
2026-05-07 13:45 36.88981 -2.17705 2967 ft 176 kts 258°
2026-05-07 13:45 36.88745 -2.19166 2719 ft 168 kts 256°
2026-05-07 13:45 36.88434 -2.20575 2511 ft 168 kts 253°
2026-05-07 13:45 36.88093 -2.21971 2290 ft 167 kts 252°
2026-05-07 13:46 36.87751 -2.23356 2053 ft 165 kts 252°
2026-05-07 13:46 36.87424 -2.24685 1828 ft 155 kts 252°
2026-05-07 13:46 36.87118 -2.25928 1661 ft 148 kts 251°
2026-05-07 13:46 36.86818 -2.27148 1461 ft 147 kts 250°
2026-05-07 13:47 36.86519 -2.28359 1260 ft 148 kts 250°
2026-05-07 13:47 36.86216 -2.29595 1051 ft 146 kts 251°
2026-05-07 13:47 36.85921 -2.30796 872 ft 144 kts 251°
2026-05-07 13:47 36.85629 -2.31984 681 ft 146 kts 250°
2026-05-07 13:48 36.85329 -2.33202 496 ft 144 kts 250°
2026-05-07 13:48 36.85034 -2.34406 272 ft 146 kts 250°
2026-05-07 13:48 36.84746 -2.35585 73 ft 142 kts 251°
2026-05-07 13:48 36.84490 -2.36626 54 ft 98 kts 253°
2026-05-07 13:49 36.84353 -2.37186 62 ft 37 kts 253°
2026-05-07 13:49 36.84292 -2.37437 56 ft 29 kts 253°
2026-05-07 13:49 36.84234 -2.37670 56 ft 27 kts 253°
2026-05-07 13:49 36.84198 -2.37892 59 ft 23 kts 266°
2026-05-07 13:50 36.84210 -2.38072 57 ft 20 kts 280°
2026-05-07 13:50 36.84242 -2.38197 61 ft 10 kts 333°
2026-05-07 13:50 36.84289 -2.38151 62 ft 10 kts 71°
2026-05-07 13:50 36.84308 -2.38072 58 ft 9 kts 73°
2026-05-07 13:51 36.84329 -2.37988 60 ft 11 kts 73°
2026-05-07 13:51 36.84351 -2.37898 61 ft 11 kts 73°
2026-05-07 13:51 36.84373 -2.37809 63 ft 11 kts 73°
2026-05-07 13:51 36.84394 -2.37721 57 ft 10 kts 73°
2026-05-07 13:52 36.84416 -2.37636 62 ft 10 kts 73°
2026-05-07 13:52 36.84436 -2.37552 60 ft 11 kts 73°
2026-05-07 13:52 36.84459 -2.37461 65 ft 11 kts 73°
2026-05-07 13:52 36.84491 -2.37381 61 ft 10 kts 30°
2026-05-07 13:53 36.84552 -2.37365 63 ft 9 kts 42°
2026-05-07 13:53 36.84575 -2.37292 65 ft 10 kts 73°
2026-05-07 13:53 36.84600 -2.37264 67 ft 4 kts 351°
2026-05-07 13:53 36.84632 -2.37275 60 ft 5 kts 343°
2026-05-07 13:54 36.84662 -2.37282 67 ft 3 kts 13°
2026-05-07 13:54 36.84660 -2.37266 63 ft 3 kts 126°
2026-05-07 13:54 36.84652 -2.37247 65 ft 0 kts 115°